1 39027U 12072B 12354.91049961 .00001125 00000-0 74179-4 0 337
2 39027 097.4045 043.5628 0066226 148.6332 211.8874 15.07679345 1198
1 39028U 12072C 12355.09424240 .00005975 00000-0 35364-3 0 299
2 39028 097.4468 043.8003 0053038 148.1720 212.2815 15.10594600 1229
